User: anonymous   Login
Location: Unspecified
(0.0000°N, 0.0000°E)
Time: 18:41:40
(UTC+00:00)
Language:

USA 200 - Orbit

View from above orbital plane
View from above orbital plane
View from above satellite
View from above satellite

Ground track
Ground track

The orbit data is extracted from the following two-line orbital elements,

1 32706U 08010A   16228.76604567 0.00000000  00000-0  00000-0 0    00
2 32706  63.1171  27.4792 7167556 270.0277  15.5663  2.00615000    02
Epoch (UTC): 15 August 2016 18:23:06
Eccentricity: 0.7167556
inclination: 63.1171°
perigee height: 1143 km
apogee height: 39211 km
right ascension of ascending node: 27.4792°
argument of perigee: 270.0277°
revolutions per day: 2.00615000
mean anomaly at epoch: 15.5663°
orbit number at epoch: 0

The dashed part of the orbit path shows where the satellite is in the earth's shadow,  

DLR